Regional Weather Roundup
Issued by NWS

Home | Current Version | Previous Version | Text Only | Print | Product List | Glossary On
Versions: 1 2 3 4 5 6 7 8 9 10 11 12 13 14 15 16 17 18 19 20 21 22 23 24 25 26 27 28 29 30 31 32 33 34 35 36 37 38 39 40 41 42 43 44 45 46 47 48 49 50
000
ASUS42 KFFC 201610
RWRGA
WEATHER ROUNDUP FOR GEORGIA
NATIONAL WEATHER SERVICE PEACHTREE CITY GA
1200 PM EDT SUN AUG 20 2017

NOTE: "FAIR" INDICATES FEW OR NO CLOUDS BELOW 12,000 FEET WITH NO
SIGNIFICANT WEATHER AND/OR OBSTRUCTIONS TO VISIBILITY.

* = USE WITH CAUTION. THE STATIONS MARKED WITH AN ASTERISK MAY NOT
REPORT WEATHER SUCH AS PRECIPITATION, FOG, OR THUNDER AND ARE NOT
QUALITY CONTROLLED BY NWS.

THE REMARK "TC" DENOTES TEMPERATURE READING IN DEGREES CELSIUS.

GAZ001>058-201700-
NORTH GEORGIA

CITY           SKY/WX    TMP DP  RH WIND       PRES   REMARKS
ATLANTA        MOSUNNY   88  66  48 VRB3      30.13R HX  90
ATHENS         SUNNY     89  71  55 VRB3      30.12S HX  95
CHAMBLEE       MOSUNNY   87  66  49 VRB3      30.13R
PEACHTREE CITY SUNNY     87  67  51 SE5       30.12S HX  90
ROME           SUNNY     87  70  56 N3        30.12S HX  92
WEST ATLANTA   SUNNY     88  67  49 CALM      30.12S HX  91
GAINESVILLE    SUNNY     86  68  54 NE5       30.17R
CARTERSVILLE   SUNNY     87  69  54 VRB3      30.13S HX  91


CITY           SKY/WX    TMP DP  RH WIND       PRES   REMARKS
LAWRENCEVILLE* SUNNY     84  70  61 CALM      30.14S
MARIETTA       MOSUNNY   87  65  49 S3        30.13S
KENNESAW*      SUNNY     91  68  46 CALM      30.15  HX  95
CANTON*        SUNNY     86  68  54 CALM      30.16S
$$

GAZ059>098-102>109-201700-
CENTRAL GEORGIA

CITY           SKY/WX    TMP DP  RH WIND       PRES   REMARKS
AUGUSTA-BUSH   SUNNY     94  73  50 NE5       30.07S HX 103
AUGUSTA-DANIEL SUNNY     94  67  41 NE6       30.09S HX  97
COLUMBUS       SUNNY     90  68  48 VRB6      30.09S HX  94
MACON          SUNNY     90  67  46 N7        30.09S HX  93


CITY           SKY/WX    TMP DP  RH WIND       PRES   REMARKS
LAGRANGE*      SUNNY     90  68  47 CALM      30.11F HX  94
SYLVANIA*      MOSUNNY   91  80  71 SE3       30.09R HX 109
MILLEDGEVILLE* SUNNY     88  72  58 CALM      30.09F HX  94
$$

GAZ099>101-110>166-201700-
SOUTH GEORGIA

CITY           SKY/WX    TMP DP  RH WIND       PRES   REMARKS
SAVANNAH       MOSUNNY   91  76  61 SE8       30.07S HX 103
VALDOSTA       SUNNY     91  72  53 CALM      30.07R HX  98
ALMA           SUNNY     92  71  50 CALM      30.07R HX  98
ST SIMONS      SUNNY     89  78  70 VRB6      30.06S HX 103
FT STEWART     SUNNY     91  76  61 E5        30.05S HX 102
ALBANY         SUNNY     93  67  42 CALM      30.09S HX  96
HUNTER AFB     SUNNY     90  76  64 E6        30.05S HX 102
MOODY AFB      MOSUNNY   91  68  47 CALM      30.06R HX  95
BRUNSWICK      MOSUNNY   90  72  55 S5        30.07S HX  96


CITY           SKY/WX    TMP DP  RH WIND       PRES   REMARKS
BAINBRIDGE*    SUNNY     93  73  52 CALM      30.07S HX 102
MOULTRIE*      SUNNY     91  68  46 S3        30.08S HX  95
VIDALIA*       SUNNY     93  70  46 E6        30.08S HX  99
WAYCROSS*      SUNNY     92  69  47 NE3       30.07R HX  96
DOUGLAS*       SUNNY     90  68  48 CALM      30.09R HX  93
$$



USA.gov is the U.S. government's official web portal to all federal, state and local government web resources and services.